Theta_e
331 333 334 337 343 348 351 352 353 354 352 344 345 352 352 354 353 352 351 345 342 343 341 339 340 342 343 342 343 347 347 346 346 342 341 345 345 344 345 343 343 345 345 344 344 343 341 341 342 343 341 340 339 337 339 342 345 345 345 345 345 345 345 345 343 343 343 341 340 341 342 343 342 341 341 342 344 343 342 342 341 341 343 343 343 343 342 343 344 343 343 342 342 340 338 336 336
333 335 338 342 346 350 353 353 354 352 347 343 346 353 353 354 352 351 350 346 344 342 338 339 343 344 343 342 342 343 346 346 346 347 347 346 345 345 345 344 345 345 347 346 343 343 342 342 343 341 339 339 339 340 342 344 345 345 346 345 344 344 344 345 345 345 344 342 341 341 342 342 341 340 340 341 342 342 342 342 341 341 342 342 343 343 343 343 343 343 342 342 342 340 339 338 338
339 342 346 348 350 352 355 354 354 350 343 342 347 354 354 353 352 349 351 349 343 338 337 343 346 345 342 341 342 342 345 345 346 346 347 347 346 346 347 348 348 347 349 347 343 342 343 343 341 338 337 339 340 342 344 345 345 346 345 343 342 343 344 344 346 345 343 342 341 341 341 341 340 340 340 340 341 341 341 341 342 341 341 341 342 343 343 343 342 342 342 341 341 339 337 338 339
345 348 349 351 352 352 356 354 356 352 343 342 346 354 355 353 352 351 353 347 339 338 341 346 347 347 346 342 343 345 345 345 346 346 347 348 346 345 347 349 349 349 350 347 343 342 342 340 337 337 340 341 343 344 344 344 345 345 344 343 343 344 344 344 346 344 340 340 341 341 341 340 339 340 341 341 341 342 342 341 341 342 341 342 343 343 343 342 342 342 342 341 339 337 336 336 337
347 348 348 352 353 352 356 353 357 354 346 345 349 354 354 352 352 352 352 343 340 340 344 347 347 348 348 346 347 346 345 345 346 347 348 349 346 344 346 347 349 350 349 346 343 343 341 337 338 340 342 343 344 344 344 344 345 344 343 344 344 345 344 345 346 343 339 339 341 341 340 340 341 341 342 342 341 342 342 341 341 342 341 342 343 343 343 343 343 343 342 341 340 338 336 336 336
349 349 348 352 354 353 355 354 354 352 351 353 353 354 353 353 353 352 350 344 341 342 345 347 345 346 348 348 348 346 345 346 346 347 349 349 346 345 345 347 349 349 347 347 346 343 339 338 341 342 342 343 343 344 344 343 343 343 343 343 343 343 343 345 345 342 340 340 340 340 338 340 342 342 342 341 341 342 343 342 342 342 342 342 343 343 343 343 343 342 342 342 341 339 337 337 336
350 351 352 354 354 354 354 352 351 352 353 355 355 355 353 354 353 351 350 345 344 345 347 347 346 345 347 347 347 348 347 346 346 347 348 348 347 345 346 348 349 347 346 346 345 341 339 340 342 342 343 343 344 344 343 342 342 342 342 343 343 343 343 344 344 341 340 341 340 338 339 342 344 343 341 341 341 343 343 343 343 343 343 343 343 343 343 342 341 340 340 341 341 340 338 336 336
350 351 354 355 355 355 353 350 352 355 353 353 354 355 354 355 353 350 351 348 346 347 348 348 347 346 347 348 349 349 347 346 348 348 347 348 347 346 347 349 347 346 346 344 342 340 340 341 343 343 343 344 344 344 343 342 342 342 343 343 343 343 343 344 344 341 341 342 341 341 342 344 343 342 342 342 342 342 342 342 342 342 343 343 342 342 342 341 340 339 340 340 341 340 339 337 335
350 352 354 354 355 354 353 352 353 355 354 353 354 355 356 354 351 350 352 350 347 347 349 349 347 347 348 350 349 348 347 348 348 347 348 349 348 347 349 348 346 346 345 343 341 341 341 342 344 344 344 344 344 343 343 342 342 342 343 343 343 344 344 345 344 342 342 343 342 342 343 342 342 342 343 344 343 342 341 341 342 342 342 342 342 342 341 341 340 340 341 340 339 339 339 338 334
352 352 353 354 355 351 349 352 355 355 355 354 354 356 355 353 352 352 353 351 348 348 350 349 348 349 349 350 349 347 347 348 348 348 349 349 349 348 349 347 345 345 345 344 342 343 342 343 344 344 344 344 343 342 342 342 341 342 342 343 343 344 344 344 343 342 343 343 342 342 342 342 341 343 344 344 343 342 341 342 342 342 342 342 342 341 341 342 342 342 341 341 339 338 337 336 333
352 353 354 355 354 349 347 352 355 356 356 354 355 356 354 354 353 353 354 351 349 349 350 349 349 349 349 350 348 347 348 349 349 349 349 349 349 349 348 346 345 345 345 345 344 344 343 344 344 343 343 343 342 342 341 341 341 341 342 342 343 344 344 344 342 341 342 342 341 342 342 342 342 343 344 344 343 342 343 343 343 342 342 342 342 341 341 342 342 342 341 340 338 337 335 332 331
351 353 354 354 352 350 351 353 354 356 356 354 355 355 354 355 355 354 354 353 352 350 350 350 349 349 349 350 348 347 347 349 349 349 348 348 349 349 347 345 345 345 346 346 346 345 343 345 344 343 343 343 342 342 342 342 342 343 343 344 345 345 345 344 342 341 342 342 341 341 342 342 342 342 342 342 343 343 342 342 342 342 342 342 342 341 340 341 341 341 340 338 337 335 334 334 333
352 352 353 354 353 351 353 354 354 356 356 355 355 355 355 355 355 355 353 353 352 350 350 350 349 349 348 348 347 346 347 348 349 349 348 349 349 348 347 345 344 345 346 347 347 345 344 345 344 343 343 343 342 342 343 343 343 344 344 345 345 345 345 345 343 343 342 342 341 341 342 342 342 342 342 342 343 343 342 342 342 342 341 341 341 340 340 340 340 340 338 338 337 336 337 337 337
352 352 352 354 354 353 355 354 354 354 355 355 354 355 355 355 355 354 353 353 353 352 351 350 349 349 348 346 345 346 347 348 349 349 349 349 348 347 346 345 344 346 347 348 347 344 345 346 345 344 343 343 342 343 343 344 344 344 344 344 344 345 345 344 342 343 344 343 342 341 341 342 342 342 342 342 342 342 341 341 342 341 340 340 341 340 340 340 339 338 338 338 337 337 337 337 337
351 353 352 353 352 354 355 354 353 353 354 354 354 356 355 355 354 354 354 353 353 352 351 350 349 349 347 343 343 346 348 349 349 349 349 348 347 346 345 345 345 346 347 349 347 343 344 345 345 345 343 343 343 345 345 344 344 345 344 345 346 345 345 343 341 343 344 342 342 343 343 343 343 342 341 341 341 341 341 341 340 339 339 339 339 339 340 339 339 338 338 338 337 337 336 336 335
351 352 352 351 350 352 354 356 353 352 354 354 355 356 355 355 354 354 354 353 354 352 351 350 349 349 346 343 344 347 348 349 348 348 348 348 347 346 345 345 346 347 348 350 349 344 342 344 345 345 344 344 344 345 345 345 345 344 344 346 345 345 345 344 341 342 342 342 342 343 343 343 343 342 341 341 342 342 341 341 341 340 340 340 339 339 339 340 339 339 338 337 337 338 339 337 334
353 353 353 349 348 351 354 355 354 352 354 354 355 355 355 355 355 355 354 353 353 352 352 349 347 348 345 344 345 347 349 349 348 348 348 347 346 346 345 346 346 347 348 350 349 345 343 344 344 344 345 345 345 346 345 345 345 345 344 345 344 344 345 344 342 341 341 342 342 342 343 344 343 342 341 340 339 340 340 341 341 340 339 339 337 337 339 340 340 339 339 339 339 340 339 337 335
353 353 351 348 349 353 354 354 354 355 355 354 355 355 354 355 354 354 353 353 352 352 352 349 348 349 347 347 347 348 349 348 348 348 348 347 346 346 345 346 347 347 348 349 347 344 343 344 344 344 345 345 345 346 345 345 345 346 345 344 344 344 345 344 342 341 341 342 342 342 343 343 342 342 342 341 340 340 340 341 341 340 338 337 337 338 340 341 341 340 339 339 339 338 338 338 337
350 351 350 349 351 353 354 355 355 355 355 355 356 355 354 354 353 353 352 352 352 351 351 350 350 350 349 348 348 348 349 349 348 348 347 346 345 345 344 345 347 347 348 348 346 344 343 344 343 344 344 345 345 345 345 345 346 345 344 343 343 343 344 343 341 340 340 340 340 342 342 342 341 341 342 342 342 342 342 341 340 340 340 340 342 343 342 341 339 338 338 338 338 339 341 343 344
350 351 350 350 351 352 355 355 355 356 356 356 356 355 354 354 353 353 352 352 352 351 351 351 350 349 349 348 348 348 348 348 347 346 345 345 345 345 344 345 347 347 348 348 347 344 344 344 343 343 344 344 344 345 345 345 345 345 344 344 343 343 343 342 341 340 339 339 340 341 342 341 341 341 341 341 342 341 340 339 339 340 341 342 343 342 340 339 337 338 338 339 341 342 344 345 346
351 351 349 349 351 352 355 354 355 356 356 356 356 356 355 354 353 353 352 351 352 352 352 351 349 348 348 348 348 348 347 347 346 345 345 345 345 344 344 345 346 347 347 348 346 344 344 344 343 343 344 344 344 345 345 345 345 344 344 345 345 344 344 343 341 340 340 340 339 340 341 342 342 341 340 340 340 340 340 340 340 341 342 341 342 341 341 341 341 342 343 343 344 344 345 345 345
349 349 349 348 351 353 354 354 355 355 356 356 356 356 355 354 353 352 351 351 351 352 352 350 349 348 348 348 348 348 347 346 346 346 345 345 344 343 344 346 346 346 347 347 346 343 344 344 344 344 344 344 345 345 344 345 345 343 343 345 346 346 346 345 343 341 341 340 339 340 340 340 341 339 338 337 338 340 341 342 342 342 340 340 343 344 344 345 345 346 346 346 345 343 344 344 344
347 347 347 349 353 354 354 354 355 354 355 357 357 356 355 354 352 351 352 352 352 351 351 350 348 348 348 348 348 347 347 347 346 346 345 343 343 342 343 346 346 345 346 346 345 343 343 344 345 345 344 344 345 344 345 345 342 340 340 344 346 347 347 347 345 342 341 341 341 341 338 339 339 337 335 335 337 339 341 342 343 342 343 343 345 346 345 347 348 348 349 348 347 346 345 344 343
345 344 346 351 354 355 354 354 355 355 356 356 356 355 354 352 350 351 352 353 352 351 350 350 348 348 349 348 348 348 347 347 346 345 344 342 342 341 343 346 346 345 346 346 346 344 344 345 345 346 345 345 345 345 346 343 339 338 339 342 344 345 347 347 345 343 343 343 342 341 340 341 342 340 338 339 339 340 341 342 343 344 346 346 347 348 348 349 350 349 349 350 350 348 346 345 345
342 343 348 353 353 353 355 354 355 356 356 356 355 354 354 351 351 352 352 352 353 351 349 349 349 348 349 348 348 348 348 347 346 344 342 342 341 340 343 345 346 346 346 346 346 346 345 345 345 345 344 343 344 345 345 343 339 339 341 342 340 342 346 343 342 342 342 341 340 342 344 344 344 343 343 342 341 340 341 344 345 346 348 348 349 350 351 351 350 349 349 350 350 349 347 345 345
338 343 350 354 353 353 355 355 355 356 356 355 355 354 354 352 352 352 352 353 352 350 349 349 349 348 348 348 347 348 348 347 345 344 342 343 341 340 342 345 346 346 346 346 347 346 345 345 346 346 344 343 344 345 345 343 341 339 339 340 338 340 341 340 342 344 342 340 337 340 344 345 345 344 343 341 340 340 343 345 346 347 349 350 349 350 350 351 351 350 350 351 351 350 348 346 346
338 348 354 354 354 354 354 354 355 356 356 355 355 355 354 353 352 351 351 352 351 350 349 349 349 348 347 347 347 348 347 346 345 343 342 342 340 339 340 344 347 347 346 346 347 346 344 345 346 344 343 343 344 344 343 343 341 340 339 339 339 337 337 340 344 345 344 339 335 337 339 344 346 344 342 342 342 343 345 346 347 348 350 350 350 350 349 349 349 348 348 349 351 351 348 348 346
343 352 354 353 352 353 353 353 353 355 356 356 355 356 355 353 353 352 351 351 351 350 349 349 349 348 347 347 348 348 347 346 345 342 341 340 339 338 339 343 346 346 347 347 347 345 346 347 346 344 342 341 343 343 343 342 341 340 339 340 339 335 336 343 345 344 341 336 335 337 337 340 342 340 340 342 343 345 346 346 347 349 350 350 349 348 347 346 347 346 345 347 349 351 348 347 346
349 352 354 353 352 352 352 352 352 352 355 355 354 354 353 353 354 352 350 351 351 350 348 349 349 347 348 348 348 348 347 347 345 342 340 340 339 337 338 342 346 347 348 347 346 346 348 348 346 344 342 340 342 344 343 343 341 341 342 341 339 336 337 343 344 340 337 335 336 338 337 338 338 338 339 341 345 346 347 348 349 349 348 348 346 345 346 346 348 348 348 349 350 350 348 347 346
353 351 353 354 352 352 352 352 352 352 353 353 353 352 352 354 354 352 351 351 351 350 348 349 348 347 348 348 347 348 348 347 344 342 341 340 339 338 337 341 346 348 348 347 346 347 348 347 347 346 343 341 342 343 344 344 343 342 343 342 339 340 341 342 342 338 337 339 339 340 339 339 339 341 341 343 347 348 348 350 351 348 345 346 346 345 346 347 349 350 350 350 350 349 348 347 346
351 349 350 350 348 349 352 352 352 353 353 353 353 352 352 354 354 352 352 351 351 349 348 349 348 347 348 347 347 347 348 347 343 342 342 341 339 338 337 340 345 348 349 348 347 346 347 346 347 346 342 341 341 342 343 344 344 344 344 343 341 343 345 345 344 342 342 342 341 341 341 341 341 342 342 343 347 350 350 351 351 348 345 346 347 345 347 349 348 349 351 350 350 349 348 347 346
347 347 345 345 345 348 354 353 353 354 352 353 354 353 354 353 353 353 352 352 350 349 349 348 347 347 347 347 346 346 347 346 343 342 342 341 340 338 337 339 344 348 349 349 346 344 347 345 345 346 341 341 341 342 344 344 345 345 344 344 342 343 346 348 347 347 347 346 345 343 341 341 341 342 343 343 347 351 351 351 349 345 344 346 346 345 348 350 348 347 349 351 351 348 347 347 346
348 347 342 342 346 348 352 352 354 355 353 353 353 354 356 355 354 353 353 353 351 350 349 348 348 347 347 347 345 345 345 346 344 343 342 341 341 339 338 338 343 348 349 349 344 342 347 343 344 348 344 341 342 342 344 344 344 344 345 347 345 345 348 348 348 349 349 350 349 345 341 342 342 343 343 342 347 351 351 352 349 344 344 345 344 347 351 351 350 348 346 350 352 349 346 346 346
344 344 342 345 348 346 347 351 354 354 353 354 353 355 357 355 354 354 353 353 352 351 350 349 348 347 348 346 345 344 345 345 345 344 342 342 342 341 339 336 341 348 349 349 345 344 348 345 345 349 347 344 342 343 345 345 345 345 348 349 345 347 351 349 349 350 350 351 350 345 342 344 344 344 344 343 346 349 350 351 348 345 344 344 345 349 351 350 351 352 349 350 351 349 347 347 346
341 339 341 343 345 345 347 351 353 353 353 355 355 355 357 355 354 354 354 354 353 352 351 349 348 348 349 347 345 345 345 344 345 344 342 342 342 343 340 337 341 347 349 350 348 347 349 348 347 345 345 347 345 344 345 345 346 346 350 350 346 348 352 350 350 351 350 351 349 344 342 344 344 344 344 343 344 347 349 349 345 345 345 343 347 352 352 349 348 350 351 350 351 349 348 347 346
344 341 342 343 342 344 350 351 351 353 352 354 356 354 355 356 354 355 354 353 354 353 351 350 349 349 349 347 345 346 345 343 344 345 343 342 343 344 341 338 343 348 350 350 347 345 345 347 345 340 342 347 345 344 346 347 348 349 352 352 349 350 351 350 351 351 351 352 348 344 343 344 344 344 344 344 344 345 348 348 344 345 346 345 347 352 353 349 346 346 348 349 351 349 348 348 346
344 342 342 345 344 345 351 352 351 353 352 353 354 352 353 354 353 354 354 353 354 353 352 351 350 350 349 347 346 346 345 344 345 345 344 344 344 344 342 343 346 349 350 348 345 344 343 346 346 340 341 344 345 347 347 350 352 351 352 352 351 351 349 349 351 352 352 351 346 344 344 344 344 344 344 345 344 343 344 345 344 344 347 347 345 347 348 346 345 346 347 349 351 349 348 347 347
341 341 340 342 343 345 350 353 351 352 352 352 352 351 353 354 352 353 354 354 354 353 353 352 350 351 349 348 348 348 347 346 347 347 345 345 345 345 345 347 349 350 350 347 346 345 344 347 347 343 341 342 345 348 347 350 353 352 352 352 351 350 348 349 351 352 353 349 343 342 344 343 344 345 344 345 344 343 343 344 344 344 345 344 344 344 345 345 345 346 349 351 351 349 348 348 349
341 342 339 336 339 344 347 353 354 353 352 351 352 353 354 354 352 354 355 354 353 353 354 351 350 351 349 350 351 349 348 347 348 347 346 346 346 345 346 349 350 350 351 348 346 346 345 347 347 344 342 342 345 346 345 347 350 350 351 351 351 351 350 351 350 349 351 350 344 342 343 343 344 344 344 344 344 344 344 345 344 344 344 344 345 345 345 345 343 346 351 352 351 350 348 348 349
337 342 340 336 341 344 343 349 354 353 352 350 353 354 354 354 352 354 356 354 354 354 353 352 350 350 350 351 351 351 349 349 348 347 347 347 347 347 347 349 350 350 351 351 349 347 347 346 343 342 342 342 344 344 344 346 348 348 347 348 349 351 350 348 346 345 347 349 347 343 342 343 345 347 346 345 346 345 345 345 345 344 344 345 345 345 345 346 345 347 351 351 351 351 349 349 349
328 338 341 342 346 343 342 348 352 352 351 351 352 349 349 353 354 354 355 354 354 353 353 353 351 351 351 351 352 352 350 350 350 348 347 348 348 348 348 349 350 351 352 352 351 349 350 346 341 341 341 341 343 344 344 346 346 347 346 344 346 347 347 346 347 348 346 346 348 346 343 343 346 348 347 346 347 346 345 345 345 345 345 343 344 348 349 347 347 348 349 350 351 350 350 350 349
324 328 336 341 344 343 344 349 349 346 345 348 349 343 344 351 353 353 353 352 352 352 352 353 352 352 352 352 353 352 352 351 350 349 348 348 348 348 350 350 350 351 352 352 351 350 351 348 343 341 342 341 342 343 344 345 345 346 346 346 347 347 348 349 350 352 349 348 351 350 345 343 344 346 345 346 347 346 346 346 346 347 346 343 344 347 348 347 348 350 350 351 352 349 350 351 350
323 324 327 332 338 343 346 348 344 339 340 346 346 343 344 348 350 353 354 353 353 352 352 352 352 353 353 352 352 352 352 351 350 350 348 347 349 349 350 351 351 351 351 352 352 350 351 350 344 341 342 343 342 343 344 344 344 346 347 350 352 351 351 351 350 352 352 352 352 350 347 344 343 346 347 346 346 346 346 346 346 346 347 346 344 344 348 351 351 350 348 349 349 345 348 351 351
322 322 324 327 333 340 342 342 339 337 339 344 344 343 342 342 347 353 353 353 354 353 353 353 352 352 353 353 351 351 352 351 351 350 349 348 348 349 350 351 351 350 350 351 352 351 351 349 344 341 342 343 343 343 343 343 343 344 347 351 353 353 354 352 349 350 350 350 350 350 350 347 342 344 347 345 346 346 346 346 346 345 346 345 344 346 350 351 349 346 344 344 344 344 347 348 349
324 321 322 326 330 336 338 335 335 337 336 336 341 343 338 336 345 354 354 354 355 355 354 354 353 353 353 353 351 350 351 351 351 350 349 349 349 349 350 350 350 349 349 350 351 352 351 347 343 342 342 343 344 343 343 342 342 343 346 351 352 351 354 353 351 350 347 346 347 347 349 349 345 343 343 344 345 345 345 346 345 344 345 344 346 350 350 347 344 344 345 345 346 347 348 346 347
328 327 328 332 332 334 337 335 335 336 333 331 338 342 336 335 344 350 351 353 354 354 353 353 355 353 353 353 352 351 351 351 351 350 350 350 349 349 349 349 349 348 348 349 350 352 351 346 341 341 343 343 343 343 342 341 342 342 344 348 350 349 351 352 351 349 345 344 345 344 345 347 349 348 346 344 344 343 344 345 345 346 346 346 347 349 347 344 343 344 346 346 347 348 348 348 350
330 332 334 336 336 336 337 338 338 336 331 331 337 341 336 335 342 347 350 352 352 352 352 352 354 354 353 353 353 352 351 352 351 350 350 350 350 349 349 348 348 348 348 349 349 351 352 348 342 340 342 343 342 342 342 341 341 342 342 344 348 349 349 349 349 348 345 344 345 348 347 348 351 352 351 348 344 345 344 343 348 350 347 346 345 345 347 348 349 350 348 345 345 347 348 349 350
329 332 333 333 335 335 333 336 338 333 330 332 337 341 338 333 338 345 349 351 350 351 351 351 354 355 353 353 353 353 352 352 351 351 350 350 350 350 349 348 348 349 348 349 349 350 352 351 345 340 341 342 342 342 342 342 341 341 341 342 345 348 349 349 350 349 347 347 349 350 347 346 348 349 350 350 348 349 347 342 347 350 346 345 346 346 348 349 351 353 350 346 345 346 346 347 349
329 330 329 329 333 334 331 332 332 329 330 334 337 339 337 335 339 346 349 348 349 350 352 352 354 355 354 354 354 354 353 352 352 351 350 350 350 350 349 349 349 350 349 350 350 349 351 350 344 340 340 341 342 343 343 343 341 340 340 341 343 346 348 348 350 350 350 351 353 352 347 345 346 347 349 351 352 352 350 346 345 346 345 345 346 346 346 346 348 351 350 348 349 347 345 346 347
329 329 326 326 333 335 332 329 329 328 330 333 338 340 335 335 342 347 348 348 349 349 351 353 354 355 354 354 354 354 354 353 352 352 351 351 351 350 350 350 350 351 351 350 350 349 351 350 342 338 339 340 341 343 343 343 342 339 339 340 341 343 346 348 350 352 354 352 352 353 352 351 350 351 353 353 353 353 353 352 348 345 345 344 344 344 345 345 345 347 348 349 352 350 346 345 346
329 331 329 326 330 333 331 328 327 329 329 331 337 337 332 334 342 347 348 348 349 349 350 353 355 356 355 353 353 354 354 353 352 352 351 350 350 351 350 350 351 352 351 350 351 351 351 349 342 338 339 340 341 343 344 343 342 340 339 339 340 342 345 349 351 352 353 353 353 353 353 353 353 354 354 352 351 350 352 352 348 347 345 342 344 344 344 346 345 345 346 347 350 350 344 343 347
326 329 329 326 327 330 330 328 328 328 329 332 334 332 334 341 346 347 348 348 348 349 350 353 355 357 355 352 353 354 354 354 353 352 351 351 351 351 351 351 351 352 351 351 352 351 350 348 343 340 341 340 340 342 343 343 343 342 340 338 339 341 342 347 350 350 350 351 353 353 352 352 353 354 353 351 349 349 350 350 349 350 346 341 343 343 344 347 344 344 347 345 349 352 347 344 348
323 323 324 328 330 331 327 326 328 329 328 330 331 330 333 339 342 346 347 346 347 348 349 353 355 356 355 353 353 353 354 354 354 353 352 351 351 350 350 350 351 351 352 352 351 349 348 346 344 343 342 341 341 341 342 342 343 343 342 339 340 341 341 345 350 350 350 351 351 351 352 352 353 353 352 352 351 349 348 348 350 352 348 344 345 345 344 345 344 346 348 346 348 353 349 344 347
322 320 323 329 332 331 329 326 327 328 326 327 329 328 328 329 335 347 351 347 347 347 347 352 355 355 354 354 353 352 353 353 354 354 352 351 351 351 350 351 351 351 351 351 348 347 346 346 346 344 343 342 341 341 343 344 344 344 343 341 340 342 344 347 350 350 351 352 351 350 351 352 352 352 352 352 353 352 349 347 346 348 348 345 345 346 344 344 344 345 347 345 346 349 347 345 345
323 323 325 327 326 326 326 326 326 327 325 326 327 328 326 325 333 344 349 349 348 347 348 351 355 355 354 354 354 352 352 353 354 354 353 351 351 351 351 351 351 350 351 350 348 346 347 346 346 345 344 343 342 344 347 346 346 346 346 343 339 340 343 347 350 351 351 351 351 351 351 351 351 352 351 350 351 353 352 349 346 347 349 347 345 346 345 344 344 345 348 349 350 347 344 346 348
323 324 325 326 326 325 324 325 325 325 324 324 325 325 324 329 339 347 350 352 351 350 350 350 354 356 354 354 354 353 353 353 354 355 353 352 351 351 352 351 350 348 348 349 347 347 348 347 346 346 345 344 343 346 348 346 346 348 349 346 341 338 338 341 346 349 350 351 351 351 351 351 351 352 352 350 350 353 353 352 352 352 354 353 350 351 351 348 344 345 349 352 353 348 344 346 349
320 320 322 323 324 324 325 325 323 323 323 324 324 322 324 337 351 355 354 354 352 351 351 351 354 355 353 353 354 354 354 354 355 355 354 352 351 351 352 350 349 347 346 347 346 346 348 347 346 344 344 344 343 345 346 344 345 347 348 346 343 342 339 339 343 345 346 349 351 351 351 351 352 352 352 352 352 352 352 352 353 354 355 355 351 349 351 350 347 344 344 346 347 344 343 346 347
321 320 320 322 322 321 323 323 323 324 323 323 322 321 328 342 349 351 353 351 351 352 352 352 354 354 353 353 353 353 354 353 354 354 354 353 351 350 351 350 349 348 347 345 344 344 345 345 344 343 343 343 343 343 342 342 343 344 344 342 342 344 342 339 343 345 345 347 349 350 350 351 352 350 350 352 352 353 352 352 353 353 352 353 349 345 349 353 351 348 346 349 350 346 343 345 346
Wind_Speed
3 3 2 1 2 2 5 5 2 2 1 1 4 5 4 5 8 9 10 11 10 9 11 15 13 7 4 5 8 12 15 9 6 4 9 16 22 19 17 18 15 15 16 15 13 12 12 11 10 10 8 8 8 9 9 9 8 7 6 8 7 7 7 7 8 9 9 7 7 8 9 9 9 8 9 10 11 11 11 12 13 14 14 15 16 16 16 16 16 16 16 16 16 16 15 14 13
4 4 2 1 2 4 3 3 1 2 2 2 5 6 6 6 8 10 11 10 10 11 17 16 10 7 6 8 10 11 15 15 13 16 19 23 24 19 18 18 15 15 14 13 13 12 11 10 9 9 8 9 9 10 9 8 7 7 6 7 7 6 6 7 8 9 9 7 7 9 11 10 10 9 10 11 11 11 11 12 13 13 14 15 16 16 16 16 15 16 16 16 16 15 14 14 14
5 4 2 2 4 6 4 3 1 1 3 3 5 6 6 7 10 11 10 11 15 19 19 13 10 8 7 9 9 9 11 13 18 23 24 22 22 21 19 17 15 14 13 12 12 12 11 9 9 9 9 9 9 9 8 7 7 7 7 6 7 7 7 7 8 10 9 6 7 9 10 11 11 10 10 11 11 11 11 12 13 13 13 15 15 15 16 15 15 16 16 16 15 14 13 14 14
5 3 4 4 5 6 5 2 1 1 3 5 6 7 7 9 11 12 11 15 19 20 17 12 9 5 5 9 9 11 13 15 18 21 22 18 20 24 21 18 17 15 14 12 12 11 10 9 9 10 9 9 8 8 7 7 7 7 7 7 7 8 8 8 10 13 9 7 8 10 10 11 11 10 10 11 11 11 11 11 12 13 14 15 15 15 16 15 15 16 16 16 15 14 14 14 14
4 3 4 4 5 3 3 2 1 0 3 4 5 8 8 10 12 12 14 17 18 19 16 11 9 7 9 10 7 11 14 17 17 17 19 18 21 24 21 19 17 15 13 12 13 11 10 10 10 10 10 9 8 7 7 7 8 7 7 7 8 8 8 9 12 15 11 8 9 10 10 11 11 10 11 11 11 12 12 12 13 14 14 15 15 15 16 15 15 16 16 16 15 16 16 15 15
3 4 4 4 5 2 2 2 2 3 4 4 5 9 10 11 13 15 16 16 17 17 13 8 10 11 10 12 13 13 13 16 17 16 18 21 22 22 20 18 15 15 13 11 12 12 10 10 10 10 9 8 7 7 7 7 7 7 7 7 8 9 9 10 14 14 12 11 10 11 11 11 11 11 11 11 12 13 13 13 13 14 15 15 15 16 16 15 15 15 16 15 16 16 17 16 15
4 6 4 5 5 4 3 1 3 4 4 4 5 10 11 13 15 17 16 15 14 13 10 9 13 12 9 10 13 13 11 15 16 17 20 23 22 21 19 16 15 14 14 12 11 11 10 11 11 10 9 8 8 8 8 7 7 7 8 8 8 10 10 12 14 13 11 11 11 11 11 11 12 12 12 12 12 13 13 13 14 15 16 16 15 16 15 15 16 15 16 15 16 17 17 16 15
4 5 4 5 4 3 3 1 4 4 4 3 4 9 13 16 18 17 15 14 13 12 10 11 13 10 8 9 10 11 12 15 16 19 22 23 21 20 18 15 15 14 13 12 11 11 10 11 10 9 9 8 8 8 8 8 8 8 9 9 9 11 11 13 14 12 11 12 12 12 12 12 13 13 13 14 13 13 13 14 15 15 16 16 16 16 15 15 16 15 16 15 16 16 16 15 14
4 5 5 5 3 1 2 1 5 5 5 4 5 10 14 17 18 17 14 12 13 13 12 12 10 9 11 12 14 13 13 16 19 22 22 21 20 19 17 15 15 14 13 12 11 11 10 10 10 9 9 9 9 8 8 8 9 9 10 10 11 11 11 14 15 12 12 13 13 13 13 13 13 14 15 15 14 14 15 15 15 16 16 16 16 16 16 15 15 15 15 15 16 17 16 15 14
5 4 4 3 3 2 1 2 4 4 5 6 8 12 15 16 17 16 13 12 14 14 13 10 9 12 14 15 15 14 15 18 22 22 20 20 19 17 16 15 14 14 13 12 12 11 10 10 9 9 9 10 9 8 9 9 9 10 10 10 12 11 12 16 16 13 13 13 14 14 14 14 14 15 16 16 16 16 17 17 16 16 16 16 17 16 16 15 15 15 15 16 16 17 15 15 16
5 3 3 4 2 1 0 4 4 3 5 7 10 13 13 15 16 14 12 13 14 15 14 10 11 16 15 14 14 14 18 20 21 21 20 19 18 16 16 15 14 13 13 12 11 10 10 10 9 9 10 10 10 10 10 10 10 11 12 12 13 12 14 18 16 14 15 15 15 16 16 16 17 17 17 18 18 18 17 17 17 17 17 17 17 17 16 16 16 15 16 16 17 17 15 16 18
4 2 2 3 3 1 2 4 6 6 7 8 10 12 13 15 14 13 13 13 14 14 13 10 12 15 13 12 13 17 20 19 20 21 20 19 17 17 16 15 13 13 13 12 11 10 10 9 10 10 10 11 11 11 12 12 12 12 13 13 13 14 16 18 16 16 17 18 18 18 18 18 19 19 19 18 19 19 18 18 17 17 18 18 17 18 17 17 17 16 16 16 17 17 16 17 18
4 4 3 3 3 3 2 3 7 8 7 7 9 12 13 14 13 14 14 13 14 13 11 11 12 12 12 14 15 19 20 19 20 20 19 18 17 17 15 14 14 13 12 12 10 9 9 9 10 10 10 11 11 12 13 13 12 13 14 13 13 15 16 17 17 16 18 20 20 20 20 21 21 20 19 19 19 19 18 18 18 18 19 18 17 18 18 18 17 17 17 17 17 16 16 16 16
4 5 5 3 2 2 3 2 7 8 7 8 9 12 13 12 13 15 15 14 12 11 11 11 12 12 14 15 16 19 20 20 21 19 19 18 17 17 15 14 14 13 12 11 10 9 9 9 10 10 11 11 12 13 13 13 13 13 13 13 14 16 17 18 18 17 19 20 21 21 21 22 21 20 20 20 20 19 19 18 18 19 19 19 18 18 18 18 18 17 17 17 17 16 15 15 15
4 5 4 4 2 1 1 1 8 8 8 10 10 12 12 10 14 15 14 13 10 10 11 11 9 8 14 16 16 21 21 21 21 20 19 18 18 17 16 14 13 13 12 11 10 9 9 9 9 10 10 10 12 13 12 13 13 14 13 14 16 18 18 18 18 18 20 21 22 22 22 23 22 20 20 20 20 20 19 19 19 19 19 19 18 18 18 18 18 17 16 16 15 15 14 15 14
5 5 4 3 2 2 1 1 7 8 8 10 10 12 12 12 14 13 12 12 12 12 10 9 6 5 15 19 20 24 23 22 22 20 19 19 19 17 16 14 13 12 12 11 9 9 9 9 9 9 9 10 11 12 12 12 13 14 14 15 17 18 19 18 18 19 21 21 22 22 23 23 23 21 20 19 20 20 20 19 19 19 19 19 19 18 18 18 18 17 16 15 14 13 13 13 13
4 5 4 3 2 2 2 0 3 7 11 11 12 14 13 13 12 10 11 13 15 13 8 8 6 8 17 21 24 26 24 23 22 21 20 19 19 16 14 13 12 12 12 11 9 9 9 8 9 9 9 10 11 12 12 12 13 14 15 16 17 18 19 19 18 20 21 22 21 22 22 22 23 23 21 20 20 20 19 19 18 19 19 19 19 18 18 19 18 17 16 15 14 14 13 13 12
4 4 3 3 3 4 5 2 2 8 13 13 13 15 14 13 13 13 13 14 15 13 10 11 11 13 20 24 27 26 24 23 22 21 20 18 17 15 14 12 12 12 11 11 9 9 9 8 9 9 9 10 10 11 11 11 13 14 14 16 17 17 20 20 18 18 20 21 22 22 22 21 22 23 22 21 20 19 19 18 18 18 18 19 19 18 19 19 18 17 16 15 14 13 12 12 11
5 3 3 2 5 6 5 2 5 8 14 14 13 14 14 13 15 15 13 14 15 14 13 14 17 19 23 26 26 25 23 23 21 21 19 17 16 15 14 12 11 11 11 11 10 9 9 8 9 9 9 10 10 10 11 11 12 13 14 17 18 18 20 20 18 19 19 21 22 22 22 21 21 22 22 22 21 19 18 18 17 17 17 18 19 20 20 19 18 18 16 15 13 12 11 9 8
4 4 3 4 6 5 4 3 6 9 16 16 13 14 14 13 15 13 13 15 14 12 14 16 20 23 25 27 26 24 23 22 21 20 18 17 15 14 13 12 12 11 11 11 10 9 8 8 8 9 9 9 10 10 10 11 12 12 14 16 18 19 20 19 19 19 19 20 21 22 22 20 20 21 22 22 21 20 18 18 17 18 18 18 19 19 19 18 17 15 13 13 11 10 9 7 6
3 3 4 5 6 4 4 6 9 13 18 16 13 14 14 14 12 12 15 13 10 12 15 18 22 26 27 28 26 24 23 21 20 19 18 16 15 14 13 12 11 11 11 11 10 9 8 8 8 9 9 9 10 10 10 11 11 12 13 15 17 19 20 20 19 20 18 18 20 21 21 20 19 19 20 20 20 19 17 17 17 17 17 17 17 15 14 13 12 10 9 11 9 8 7 7 7
4 4 5 6 6 3 4 8 13 16 17 16 14 13 13 14 11 13 14 8 8 12 15 19 25 27 27 27 26 24 23 21 20 19 18 16 15 14 13 12 11 11 11 11 10 10 9 9 9 9 9 10 10 10 10 11 11 11 13 15 17 17 18 19 19 19 19 18 18 18 19 19 18 18 19 19 18 17 16 16 16 16 16 15 13 11 11 10 8 8 8 8 8 7 7 7 8
5 4 3 7 7 1 7 11 16 17 17 16 13 13 14 14 11 12 9 4 10 13 14 20 25 27 26 25 25 24 23 21 19 19 17 16 15 14 13 12 10 11 11 11 11 10 10 9 9 9 9 10 10 10 10 10 10 11 13 15 16 16 17 17 18 18 18 18 16 16 17 18 18 18 19 19 18 17 16 16 15 14 13 12 11 9 10 9 7 7 7 7 7 7 7 7 8
6 4 4 8 7 5 12 15 17 16 15 14 13 14 14 13 12 11 7 8 14 14 15 22 25 26 25 23 23 22 21 20 19 18 17 16 14 14 13 11 10 11 11 11 10 10 10 9 9 9 9 10 10 10 10 11 12 12 14 15 15 16 16 16 17 17 17 17 16 16 15 16 16 17 18 18 18 17 16 14 13 12 11 10 10 8 9 8 7 7 7 7 7 7 7 7 7
4 5 5 7 9 10 14 16 18 16 13 13 13 13 12 12 12 9 9 12 15 16 18 22 25 26 24 22 22 20 19 19 18 18 16 14 14 13 12 11 11 11 11 12 11 10 10 10 10 9 10 10 10 10 10 11 12 12 13 13 14 16 15 16 18 17 17 17 18 18 15 14 14 15 16 16 17 16 15 13 12 11 10 10 9 8 8 8 7 7 7 6 6 7 7 7 7
2 5 6 9 11 11 15 17 16 15 13 12 14 12 12 14 12 9 11 15 17 18 20 22 25 25 23 22 21 19 18 18 18 18 16 14 14 14 12 11 11 11 11 11 11 10 10 11 10 10 11 11 11 11 11 11 12 12 13 13 14 15 15 17 18 16 16 17 19 19 17 15 13 14 15 15 15 14 13 12 11 10 10 9 8 8 8 8 7 6 6 6 5 6 6 7 7
5 3 8 11 11 10 13 16 13 13 11 11 12 11 13 12 7 6 11 15 18 18 20 22 23 23 22 21 20 18 18 18 18 17 16 15 14 14 12 11 10 11 11 11 11 10 10 11 10 11 12 12 11 11 11 11 12 12 13 13 14 15 16 17 16 15 15 17 18 19 19 17 13 13 15 14 12 11 11 10 10 9 9 8 8 7 7 8 7 6 7 6 5 5 5 6 6
2 6 10 12 13 10 10 13 11 10 6 8 13 11 11 9 4 8 15 16 17 19 21 22 22 22 21 20 19 17 17 17 17 16 16 16 15 14 13 11 11 11 11 11 11 11 10 10 10 12 12 12 12 11 11 12 12 12 12 12 13 14 16 15 15 16 17 17 17 16 17 16 15 14 14 12 10 9 9 8 8 8 7 7 7 7 8 9 8 7 8 8 6 5 5 6 6
3 6 7 11 13 9 8 9 8 7 4 8 12 10 9 7 7 14 17 16 17 18 21 22 21 20 20 20 18 17 17 17 16 16 16 15 14 13 13 12 11 11 11 11 11 11 10 10 11 12 13 13 12 12 11 12 12 12 11 12 13 14 15 14 13 15 17 16 16 15 14 14 14 13 12 11 9 8 9 8 7 7 7 7 8 9 9 9 8 7 7 7 6 5 5 6 6
5 5 5 9 9 6 5 7 7 5 5 8 5 5 7 7 11 16 17 17 17 18 21 22 21 20 19 19 18 17 17 17 17 16 15 14 13 13 13 12 11 11 11 11 11 12 11 10 10 11 13 13 13 13 12 12 12 11 11 11 12 13 13 13 13 14 14 13 13 13 13 13 13 12 11 11 9 7 8 8 7 7 8 8 8 8 8 8 7 7 7 6 5 5 6 6 6
5 5 6 6 5 7 6 7 10 6 6 7 1 2 6 8 13 16 16 17 17 17 20 20 20 20 19 18 18 18 17 17 17 16 15 14 13 13 13 12 12 11 11 12 12 11 11 10 10 10 13 14 14 14 12 12 12 11 11 11 11 12 11 10 10 10 10 11 10 10 11 12 11 11 9 10 10 8 7 7 7 7 8 8 7 8 8 8 7 7 7 6 5 5 5 6 6
5 4 5 4 3 7 9 8 11 8 6 7 3 3 6 8 13 15 16 17 16 17 18 19 20 20 19 19 18 18 17 16 16 16 16 15 13 13 13 13 12 11 11 12 12 11 10 11 11 10 12 14 14 14 13 13 13 12 12 11 11 12 11 9 9 8 8 8 8 8 10 10 10 9 8 9 10 8 7 6 7 8 8 7 7 7 7 7 7 7 8 7 5 5 6 6 6
6 4 3 5 5 7 9 8 10 8 9 8 5 4 5 7 13 16 15 16 15 15 17 18 19 20 19 19 19 18 18 17 17 17 16 15 14 13 13 13 12 11 11 12 12 12 11 11 11 10 10 12 13 13 13 13 13 13 12 10 11 11 9 8 8 8 7 7 7 8 9 9 9 8 8 10 10 8 7 6 6 7 7 6 6 7 6 6 6 5 7 7 5 5 6 6 5
5 5 3 3 5 7 8 9 10 8 9 8 6 4 4 7 14 17 16 16 15 15 17 18 18 19 18 18 18 18 19 18 17 17 17 16 14 13 13 13 13 12 11 11 12 12 11 11 11 11 11 11 12 12 12 12 12 13 11 10 11 11 8 7 8 7 7 6 6 8 9 8 9 9 9 10 10 8 7 7 6 6 6 5 6 5 4 4 5 4 5 6 6 6 6 6 5
7 5 4 4 5 7 7 8 11 11 8 7 6 3 5 9 13 16 17 16 15 14 16 17 18 18 17 18 18 18 18 19 17 17 18 17 15 14 13 13 13 12 11 11 12 12 12 11 12 13 12 11 11 12 12 12 12 11 10 9 11 10 8 8 8 7 7 6 6 8 9 9 8 9 9 9 9 8 7 6 6 6 5 5 5 5 3 3 4 4 4 5 6 6 6 6 5
7 4 4 3 4 6 7 8 12 13 9 8 8 4 6 10 11 13 17 17 15 14 15 16 17 18 17 17 18 18 18 18 18 17 18 17 15 14 13 13 13 12 12 12 12 12 12 12 12 13 13 12 12 12 12 11 11 11 9 8 8 8 8 8 8 7 7 7 7 9 10 9 9 9 8 8 8 8 7 6 6 6 5 4 5 4 3 2 3 3 3 5 6 5 6 6 5
5 4 4 2 1 2 4 6 12 13 8 7 9 5 7 10 11 12 15 16 15 14 16 16 17 17 17 18 18 18 18 18 17 17 18 17 16 15 14 14 14 13 13 12 12 12 12 12 12 13 13 13 12 12 12 11 10 10 9 8 8 8 8 8 8 7 7 7 9 10 10 9 9 8 8 7 7 7 7 6 6 6 5 4 4 4 3 2 3 2 3 5 5 5 6 6 5
6 5 5 5 1 2 3 2 9 11 6 6 10 8 8 11 10 13 15 15 15 17 17 17 18 18 17 17 17 18 17 18 18 18 18 17 16 16 15 14 15 14 14 13 13 12 12 12 12 13 14 14 13 12 12 12 10 9 9 8 7 7 8 7 7 7 7 7 9 10 9 9 8 8 8 7 7 7 7 6 5 5 4 4 3 3 3 2 2 2 3 4 4 5 6 6 5
6 5 4 6 5 2 0 2 5 5 3 4 9 9 7 9 9 12 16 15 16 17 17 17 19 18 18 18 17 18 18 18 19 19 18 18 17 17 16 15 15 15 14 13 13 13 13 13 13 13 14 14 14 13 12 12 11 10 9 8 8 7 7 7 7 8 8 6 7 8 8 9 8 8 8 8 7 6 6 5 4 4 3 3 3 2 2 1 2 3 3 3 4 4 5 6 6
5 4 3 3 7 4 1 3 3 2 1 2 7 7 5 8 8 10 14 16 15 14 14 15 18 18 18 18 18 19 19 19 19 19 19 19 18 18 17 16 15 15 14 14 14 14 14 14 14 14 14 15 14 13 12 11 11 11 11 10 10 8 8 8 8 8 8 7 7 7 7 8 8 8 8 8 7 5 5 5 4 4 3 3 3 2 2 1 1 2 2 3 4 4 5 5 6
3 4 4 4 9 5 2 4 7 4 3 4 6 5 5 8 10 9 10 13 13 13 13 13 16 17 16 17 17 18 20 19 20 20 20 19 19 19 18 17 16 15 15 15 15 14 14 14 14 14 14 15 15 13 12 11 11 11 11 11 11 9 9 8 8 7 7 7 6 6 6 7 8 8 7 7 6 5 5 5 4 4 3 3 3 2 2 2 2 2 2 3 4 4 4 5 5
3 2 3 4 8 6 1 5 8 5 5 8 8 5 4 9 11 10 9 10 12 14 16 14 15 17 17 17 18 19 19 19 20 20 20 20 20 19 19 18 17 16 16 15 15 15 14 14 14 14 14 14 15 13 12 11 12 11 11 10 10 9 8 7 7 6 6 7 6 6 6 6 7 7 6 6 6 5 5 5 4 4 3 3 3 3 3 2 2 2 2 3 3 3 4 4 5
3 1 1 4 7 7 5 6 7 4 2 7 11 6 1 6 10 11 11 12 13 14 18 19 18 17 18 19 19 20 19 19 20 19 20 20 20 20 19 19 18 16 16 15 15 15 14 15 15 15 14 14 14 14 13 12 12 12 11 9 7 7 7 6 7 7 6 7 7 7 6 6 7 7 6 5 5 5 5 4 4 4 4 3 3 4 3 2 2 2 2 3 2 3 4 4 4
3 2 2 5 6 8 8 7 7 3 2 5 10 8 3 2 7 12 14 13 14 15 16 20 21 20 20 20 20 20 20 20 20 20 20 20 21 21 20 19 18 17 16 15 15 15 15 16 15 15 15 14 14 14 13 13 12 13 12 9 7 6 5 5 7 7 7 7 7 6 6 5 6 7 7 6 5 5 4 4 4 4 4 4 4 3 3 3 3 3 2 2 2 2 3 3 2
3 1 3 4 5 8 8 7 6 3 2 4 7 7 5 1 6 10 12 13 14 16 16 18 22 23 22 21 20 21 21 20 20 20 20 20 21 21 20 19 18 17 16 16 16 16 16 16 15 15 15 14 14 13 13 13 12 13 12 10 9 8 6 5 6 6 7 7 7 7 6 5 5 5 6 6 5 5 4 4 4 4 4 3 3 2 3 4 4 3 2 1 1 1 1 1 1
2 2 3 2 3 5 6 6 4 3 6 5 8 9 6 2 6 7 9 11 12 14 14 18 23 24 24 22 21 22 21 21 20 20 20 20 20 20 20 19 18 17 16 16 16 16 17 18 17 16 16 15 14 13 13 13 13 12 13 12 11 9 8 7 7 7 7 7 7 6 6 6 5 4 4 4 4 4 4 4 3 3 3 3 3 4 4 3 3 2 2 2 1 1 1 1 1
5 5 4 3 2 2 3 3 2 4 6 3 7 11 7 2 5 6 7 8 10 12 12 16 22 23 24 22 22 23 22 22 21 20 20 20 20 20 19 19 18 17 16 15 16 16 17 18 18 18 17 16 15 14 13 13 13 13 13 14 13 11 10 9 8 8 8 7 6 6 5 5 5 5 4 3 3 3 3 3 3 2 3 3 3 3 3 3 2 1 2 2 2 1 1 1 0
8 5 5 3 2 1 4 3 3 7 5 2 5 9 8 5 3 5 7 6 8 11 12 16 21 23 24 23 23 23 23 22 22 21 21 21 21 20 20 19 18 17 17 16 16 16 16 18 19 19 18 17 16 15 14 13 13 13 13 14 14 12 11 10 9 8 8 7 6 5 5 5 5 5 5 3 2 3 2 2 3 3 3 3 4 4 4 5 4 3 3 3 2 2 2 2 1
10 7 6 4 0 3 6 5 5 6 3 3 3 6 6 4 1 4 8 8 7 9 12 17 24 26 27 25 23 22 22 23 23 22 22 22 22 21 20 19 19 18 18 17 17 16 16 17 20 21 20 18 16 15 15 14 14 14 14 14 14 14 12 11 10 8 8 7 6 6 5 5 4 4 4 3 3 3 2 2 2 3 3 4 4 4 5 6 5 4 4 2 2 3 3 2 2
11 9 8 7 4 4 7 6 6 6 4 4 4 4 4 3 2 3 6 8 8 8 10 17 24 28 30 29 25 22 22 22 24 24 23 22 22 21 21 20 19 19 19 18 17 17 16 17 19 21 21 19 17 16 15 14 14 14 14 14 14 14 13 12 11 8 7 7 7 6 5 5 4 4 3 3 4 4 4 3 3 3 3 4 4 4 5 5 5 5 5 3 2 3 3 2 3
11 9 9 9 7 6 7 5 5 6 5 5 6 4 4 2 4 4 4 6 7 8 8 14 21 25 30 33 27 22 22 21 22 23 23 23 22 22 21 20 19 19 19 18 18 18 18 18 18 19 19 19 18 18 16 15 15 15 15 15 14 14 14 13 12 10 9 8 7 6 6 6 5 4 5 5 4 4 4 4 3 3 4 4 4 5 4 4 5 5 5 4 3 3 3 3 3
9 9 9 9 9 8 6 5 6 6 5 5 6 4 1 2 5 6 5 6 7 9 10 13 18 21 27 30 27 23 22 21 21 22 23 23 23 22 21 20 20 20 19 18 19 20 21 21 20 18 18 18 18 18 17 16 15 15 16 16 15 15 15 14 13 13 12 9 8 7 7 7 6 6 6 5 5 4 4 3 3 3 4 4 4 5 5 4 5 5 4 4 3 3 4 4 3
7 9 10 9 8 8 7 7 7 8 7 4 5 6 3 4 6 6 6 6 7 9 12 14 16 20 24 27 28 26 22 21 21 21 22 24 23 22 22 21 20 20 19 19 20 21 22 22 21 20 19 18 17 18 18 17 16 15 16 16 16 15 15 14 12 12 11 9 9 9 7 7 7 7 6 5 5 5 4 3 3 4 4 3 4 4 4 5 5 4 4 5 4 4 5 5 4
5 8 10 8 5 6 6 6 7 8 8 4 6 8 6 5 4 3 5 7 8 9 12 14 15 19 23 24 28 30 25 21 20 19 21 23 22 22 21 20 20 19 18 19 20 21 22 22 21 21 20 19 18 18 17 17 16 15 15 16 16 15 14 13 12 12 11 10 10 9 8 8 7 7 7 6 6 5 5 4 4 4 4 4 4 5 5 5 4 4 5 5 5 5 6 5 5
9 5 8 10 7 7 7 6 7 8 8 6 7 8 8 6 3 5 6 7 8 10 11 13 15 18 22 23 24 26 24 21 20 20 20 21 21 21 21 20 20 20 19 19 21 21 23 23 22 22 21 20 18 17 17 18 17 16 15 16 16 16 15 14 13 12 12 11 10 9 9 9 7 7 8 8 7 5 5 5 4 4 4 4 4 4 5 4 4 4 4 3 5 6 6 5 5
11 8 7 9 7 8 8 7 7 7 7 7 8 8 7 4 2 5 7 7 9 11 11 11 14 17 21 23 23 23 22 21 20 20 21 21 21 20 19 20 22 22 20 20 21 22 22 23 23 22 21 21 19 18 18 18 17 16 16 16 16 15 15 14 14 14 13 11 10 9 9 9 8 8 8 8 7 7 7 6 5 5 5 5 5 4 5 5 4 4 3 4 6 7 6 5 5
11 8 8 9 7 7 7 8 8 7 7 6 7 8 4 2 4 4 7 7 7 10 9 9 12 16 18 21 23 23 23 22 20 18 18 19 20 18 18 21 23 22 21 21 23 23 22 22 23 22 21 21 20 19 19 18 17 16 16 16 16 14 14 14 14 14 14 12 11 10 10 9 9 9 8 8 8 8 8 7 7 7 7 6 7 6 6 6 5 5 5 5 6 7 5 5 6
13 10 9 10 9 8 7 8 8 7 7 6 6 7 2 4 3 2 6 6 6 9 10 8 11 14 16 18 21 23 24 23 22 20 17 16 18 17 15 18 21 20 21 24 24 23 22 23 23 21 21 21 21 20 20 18 17 17 16 15 15 14 14 14 13 14 14 13 12 11 11 10 9 9 9 9 9 8 9 9 8 8 9 8 8 7 6 6 6 6 5 5 6 6 6 5 6
Wind_Direction
151 155 148 130 133 216 238 230 225 194 217 90 97 103 82 77 108 116 120 128 122 117 126 131 130 125 107 93 114 76 46 53 53 73 113 130 146 149 148 146 141 132 128 124 122 122 119 117 114 109 105 106 111 112 113 113 111 112 109 104 106 109 108 109 113 114 118 123 119 113 108 109 114 116 117 119 117 115 115 113 110 111 113 113 110 107 105 104 104 103 100 97 94 92 92 98 105
136 139 151 123 177 248 258 236 243 137 162 111 82 80 105 120 125 124 128 134 124 128 134 130 121 109 91 93 119 99 49 48 78 93 110 133 142 143 144 139 137 131 126 125 123 121 118 116 114 111 109 108 110 112 116 116 111 108 102 102 103 104 107 108 114 113 110 118 117 107 109 115 115 116 121 124 122 120 118 115 112 113 117 116 112 108 106 106 105 104 101 96 93 91 92 96 102
144 139 169 232 235 252 276 241 256 111 143 115 86 94 125 127 123 122 118 117 123 136 137 127 116 107 114 117 101 88 72 77 99 107 118 134 139 141 143 137 137 131 125 124 122 122 120 122 119 110 106 105 109 114 118 116 108 101 98 102 103 103 103 103 109 107 103 111 109 103 113 116 113 120 125 128 127 122 119 117 115 117 120 118 115 112 110 108 106 104 100 95 92 92 95 99 102
152 158 188 246 255 245 260 233 35 1 121 107 101 108 125 119 116 115 112 120 130 139 138 128 113 86 95 107 81 81 96 102 107 115 124 136 141 142 143 141 140 133 133 133 129 124 122 122 114 106 105 107 113 117 116 111 105 99 99 99 98 97 96 101 100 98 102 110 105 105 112 116 120 129 129 126 123 118 119 119 118 119 120 119 117 114 112 110 108 105 100 95 93 92 95 100 103
154 195 204 249 271 269 288 292 65 72 60 74 110 111 115 117 118 117 119 129 138 142 142 134 113 98 81 70 66 92 107 113 114 120 125 134 141 142 142 142 138 136 138 136 129 120 117 117 111 112 113 116 122 120 113 108 104 101 103 99 92 90 92 96 90 91 100 109 109 107 111 118 123 128 125 120 120 120 119 119 119 119 120 120 119 115 114 113 112 107 101 97 93 90 91 94 97
179 242 234 244 258 272 288 277 95 98 43 14 98 112 118 123 126 124 126 133 140 143 145 140 128 124 93 66 69 88 113 124 122 124 127 134 141 141 139 139 137 136 134 130 121 114 117 117 116 119 120 124 124 116 110 106 104 101 102 99 93 90 92 92 87 89 97 104 110 111 116 119 118 119 120 118 121 121 117 117 118 118 119 121 119 115 116 116 114 109 103 97 93 90 88 87 89
232 250 235 243 230 216 250 184 79 86 61 7 79 117 126 128 133 132 133 138 140 144 149 142 135 125 103 98 82 75 104 123 125 129 134 136 140 139 137 137 135 134 133 129 120 119 121 118 120 123 125 124 116 110 107 103 102 102 101 99 96 92 92 92 89 93 100 105 113 118 122 119 116 118 119 121 122 119 116 118 117 119 120 121 118 116 117 117 114 109 102 97 93 89 86 84 85
244 272 275 279 233 199 256 116 88 83 83 42 81 119 130 133 139 141 143 146 148 151 152 144 138 119 105 115 93 86 106 119 125 132 136 136 138 139 137 135 134 134 131 126 122 123 119 117 121 122 122 118 113 108 104 103 100 101 102 100 95 92 92 91 88 92 102 108 116 122 122 117 117 119 121 123 122 119 117 117 117 119 119 119 118 117 116 116 113 108 101 98 94 90 85 83 83
252 288 294 287 272 267 272 73 85 78 91 118 112 120 132 138 143 147 148 148 153 153 148 145 139 118 110 105 98 107 112 119 127 132 136 135 138 139 136 136 135 134 128 124 122 120 119 121 122 121 119 110 107 104 103 101 99 99 98 97 90 86 89 92 90 93 100 107 116 120 118 115 118 121 122 122 120 117 116 117 117 116 116 116 116 116 115 115 114 109 106 101 95 89 84 83 83
248 269 298 290 275 284 244 75 84 74 95 130 127 129 138 143 147 151 148 148 154 152 144 135 126 122 116 105 103 117 123 127 130 130 135 136 138 138 137 138 136 132 126 125 125 124 127 126 123 119 111 104 101 100 104 102 101 101 95 91 84 82 86 90 92 97 101 104 112 116 115 114 119 121 120 118 117 116 116 118 117 117 117 117 117 116 117 115 112 109 106 102 95 89 85 85 84
257 245 283 287 266 266 113 82 103 102 105 131 130 133 142 147 149 150 146 148 155 153 145 134 122 123 116 104 105 121 131 132 131 132 139 139 138 139 138 136 134 131 127 128 128 129 130 126 121 113 105 102 100 98 101 101 101 97 90 84 81 80 83 88 94 100 102 103 107 111 114 117 121 119 115 115 116 117 119 118 117 119 119 117 117 116 116 113 108 105 102 98 94 91 88 86 85
272 268 270 291 312 348 77 90 110 119 122 133 132 136 147 152 151 150 148 150 156 155 149 136 128 129 119 110 114 129 136 135 134 137 140 138 138 139 137 134 133 131 129 127 128 129 125 122 116 109 106 103 100 96 96 96 93 88 83 80 80 80 81 88 96 100 103 106 107 109 113 118 119 117 114 115 116 118 119 116 115 116 116 116 116 115 113 110 106 103 100 96 92 91 89 87 88
272 312 309 304 315 341 40 103 118 126 132 132 134 139 148 155 155 152 149 148 155 158 148 136 135 130 115 113 125 138 141 138 137 138 139 139 139 138 135 133 133 132 127 124 127 126 120 117 112 106 101 98 98 96 95 95 91 87 83 80 82 84 85 90 96 99 102 105 108 110 112 114 115 116 116 115 114 116 116 115 115 115 115 114 114 112 110 107 104 101 100 97 92 91 89 88 90
278 312 307 298 295 346 25 104 132 137 133 131 137 144 153 158 153 151 148 146 153 153 141 140 138 124 117 122 136 146 144 142 140 138 142 141 138 137 134 133 132 130 123 124 127 123 118 112 107 102 96 95 96 94 94 95 92 88 85 84 85 85 85 90 95 100 103 106 109 111 112 112 114 114 114 114 114 115 116 116 115 115 114 112 110 107 104 102 100 99 99 97 94 94 92 90 90
286 308 299 290 299 75 23 113 146 148 131 135 147 151 151 148 149 152 151 143 140 139 135 143 145 133 141 145 149 151 146 144 142 140 143 140 138 137 133 132 132 128 121 123 125 122 118 108 102 97 94 93 91 92 92 91 90 87 84 83 82 83 85 89 94 101 104 107 109 110 111 112 113 113 113 115 116 117 118 118 116 114 112 110 108 105 102 100 99 98 97 97 97 97 96 93 91
285 303 282 275 323 81 355 183 160 154 131 139 153 149 139 140 149 149 147 138 131 138 139 145 150 149 153 149 147 147 145 144 143 143 144 140 138 136 133 132 132 127 122 123 126 125 118 109 107 100 96 93 92 95 92 89 88 85 81 79 79 84 88 91 93 99 105 106 109 111 111 113 113 112 113 114 115 116 118 118 116 114 112 111 110 108 105 101 99 99 100 101 101 99 95 93 93
281 283 273 288 338 52 50 1 181 141 133 145 155 148 137 139 141 127 133 138 135 138 133 132 132 137 143 141 141 142 143 144 144 144 144 141 138 135 134 135 134 129 125 127 130 127 119 114 113 110 106 100 100 99 94 93 89 85 81 78 80 85 88 91 94 99 105 107 108 111 112 114 114 114 114 114 116 116 117 116 114 114 114 113 111 110 105 100 98 101 105 105 104 101 96 92 90
264 275 280 316 356 28 46 54 142 134 139 150 159 150 140 141 138 132 138 140 138 133 124 123 117 121 129 133 138 140 143 145 146 146 145 143 141 139 139 139 137 133 130 132 134 128 121 118 116 114 113 107 106 102 100 98 91 85 81 80 82 87 90 93 97 99 104 108 110 112 112 113 113 114 115 116 118 117 116 115 112 110 112 114 113 111 106 102 103 107 108 107 106 100 93 88 84
256 285 288 341 13 9 26 102 155 149 142 145 158 150 140 142 142 145 144 141 144 137 130 127 120 122 127 133 139 141 145 147 148 149 147 146 145 143 141 142 141 135 134 134 135 130 123 121 118 115 112 110 109 105 104 101 96 91 85 84 86 90 94 95 97 101 104 108 112 113 111 111 111 111 113 116 117 116 118 116 113 110 111 112 111 109 106 107 110 110 110 108 100 89 83 83 82
256 276 288 16 13 351 31 123 165 147 140 143 155 147 140 142 144 154 149 145 153 148 142 139 133 136 137 138 142 144 147 149 151 151 150 148 145 143 142 142 142 136 134 136 135 130 126 126 121 116 112 109 107 104 103 103 102 98 91 90 90 92 94 93 96 103 106 107 109 109 108 108 108 108 108 110 112 114 117 114 111 112 112 111 108 107 108 111 111 110 106 96 86 80 82 86 82
263 273 295 355 350 336 70 132 151 143 144 142 146 145 141 144 148 159 154 151 161 157 152 147 143 146 144 144 147 147 149 152 153 153 152 149 145 143 141 139 138 136 136 136 133 131 130 129 123 117 114 111 107 105 105 105 102 99 98 98 97 95 94 96 100 105 107 105 105 106 106 106 105 105 106 108 110 112 113 110 110 111 111 110 107 106 107 107 103 99 90 83 81 81 86 93 89
271 254 279 334 336 338 92 138 144 143 146 140 146 147 139 143 147 158 160 159 154 153 152 146 146 148 147 148 149 150 152 154 155 155 153 150 146 143 141 138 136 137 135 136 134 134 136 131 126 121 119 117 112 110 108 105 103 103 105 104 102 100 99 102 105 108 108 107 105 105 106 107 108 108 108 110 111 112 111 110 112 111 109 106 100 100 100 97 93 88 83 85 88 84 82 90 94
269 252 299 341 339 168 138 141 142 144 147 143 147 141 139 143 140 152 158 124 129 138 144 145 146 147 148 149 149 151 154 156 157 156 154 151 148 144 142 138 137 138 136 137 136 135 137 135 132 126 124 123 118 115 112 108 105 108 108 106 106 106 106 108 111 114 113 111 107 104 104 106 110 112 112 112 112 112 112 111 111 108 106 101 97 97 94 92 89 86 82 84 88 88 84 80 83
263 294 348 2 16 118 139 140 142 141 139 138 139 138 143 143 135 146 135 112 126 131 140 144 145 147 148 150 150 152 154 156 156 154 152 151 148 145 142 138 138 140 139 138 136 137 138 138 136 130 129 128 123 119 115 112 111 111 109 105 107 107 107 112 116 119 118 115 112 107 106 106 109 112 113 114 114 114 111 108 104 101 99 95 94 92 88 85 81 82 80 76 81 86 88 85 83
258 317 10 43 67 113 135 136 137 132 126 132 138 139 140 135 131 133 126 127 130 131 141 144 145 147 149 151 150 152 155 155 154 153 151 150 148 146 142 140 139 139 140 138 136 137 138 139 137 131 133 132 127 124 118 116 117 116 110 107 107 106 108 113 115 117 119 120 119 114 110 109 111 112 114 116 116 113 109 104 101 99 96 89 87 85 82 77 73 75 75 70 74 80 86 92 89
350 337 38 76 97 125 136 129 127 124 125 140 142 134 131 133 127 114 123 134 133 135 143 146 147 148 150 152 151 153 155 156 155 154 152 151 150 147 144 142 139 141 142 139 137 139 139 138 136 134 136 136 130 126 121 120 121 118 114 111 108 107 113 114 111 112 116 123 125 122 119 115 111 115 119 118 115 111 106 103 101 99 93 88 84 80 77 74 66 66 69 66 66 74 84 88 86
356 32 79 95 105 117 132 121 113 115 123 145 141 128 132 147 149 122 134 140 138 140 145 150 151 149 152 152 152 155 157 157 156 155 154 154 153 150 149 146 143 144 143 140 141 142 140 137 139 139 138 138 132 127 125 124 123 121 118 116 113 114 117 114 113 114 117 124 125 123 124 119 116 123 124 120 113 106 102 103 102 98 93 92 88 80 79 79 75 78 88 84 71 69 79 85 87
336 115 98 105 104 100 123 117 114 113 109 142 136 125 137 166 186 132 144 149 146 146 148 153 153 151 153 152 152 157 159 159 159 160 160 159 158 155 153 150 147 146 144 145 145 143 140 139 142 141 140 139 132 128 127 124 123 123 121 119 117 119 118 113 115 120 123 125 123 122 124 123 126 130 128 124 117 109 107 105 103 103 100 98 95 90 86 84 81 83 89 81 68 65 73 81 85
198 151 113 119 115 102 111 117 129 119 116 151 137 131 148 159 130 130 147 153 150 151 152 155 154 152 154 153 155 158 161 162 163 165 165 163 160 159 155 152 151 147 147 149 147 143 142 145 145 140 141 140 133 132 129 125 125 123 121 121 122 121 118 116 120 124 124 124 124 124 125 126 129 130 130 126 117 114 115 107 105 111 110 105 101 95 86 79 74 69 69 60 54 64 72 78 84
189 180 150 141 135 119 106 121 139 123 139 157 140 143 149 130 127 138 152 153 153 155 155 157 156 155 156 157 159 161 165 166 167 168 167 166 163 161 157 154 154 150 151 151 148 147 147 149 145 142 145 142 137 135 131 128 127 125 123 125 125 122 119 120 123 124 122 122 124 125 126 129 130 130 131 125 118 117 114 110 112 120 118 108 100 95 84 72 65 62 65 58 51 68 76 78 83
191 185 175 173 157 141 132 134 146 140 150 162 156 163 149 131 138 147 154 157 158 157 158 160 159 159 160 161 163 164 169 170 170 169 168 169 165 165 161 157 157 154 153 152 152 153 152 152 148 150 151 145 141 136 134 133 129 129 130 131 132 127 123 122 123 123 121 122 124 127 129 132 132 130 129 125 122 118 115 118 124 129 123 110 104 99 86 70 61 64 71 64 56 73 80 76 80
197 185 180 180 143 139 138 149 165 156 156 177 190 163 149 140 145 152 158 162 164 160 161 164 163 164 163 165 167 167 170 172 172 170 170 170 168 169 167 163 161 158 155 154 158 156 155 158 150 152 155 147 144 140 138 138 135 137 136 136 137 132 128 128 130 128 126 124 126 134 137 137 138 134 131 125 120 118 120 123 130 134 125 114 109 98 82 67 61 63 73 70 55 65 77 76 76
200 197 175 146 139 151 148 165 190 167 148 174 197 163 145 150 154 156 162 167 170 165 164 167 167 167 167 168 171 170 170 173 174 173 172 172 172 171 170 169 165 162 160 158 162 158 159 164 151 151 159 154 150 146 143 142 140 142 137 136 139 132 128 134 136 133 134 132 134 147 146 143 143 138 133 127 122 124 124 122 131 134 123 116 109 93 79 74 69 55 62 69 56 55 68 70 72
205 200 175 147 153 162 155 162 186 174 153 171 197 182 145 153 158 159 164 170 175 171 168 171 170 169 170 172 174 173 172 174 175 175 174 174 174 173 173 174 168 165 164 160 162 158 160 165 157 159 163 160 159 153 149 147 146 145 139 141 145 137 132 139 141 137 138 137 143 155 150 146 144 139 135 130 129 131 129 132 141 138 126 114 102 92 87 86 83 61 47 56 58 60 60 57 65
200 191 152 164 167 157 153 155 169 169 156 168 195 196 149 151 159 163 167 172 178 175 172 174 173 172 172 174 176 176 176 176 176 176 175 175 174 174 174 174 171 168 166 165 164 162 164 167 169 172 166 164 168 161 155 152 150 148 141 145 150 144 142 146 146 142 140 138 152 156 148 147 146 141 138 134 134 132 129 137 140 135 130 118 105 101 98 93 93 87 61 49 50 56 54 49 55
184 174 149 169 180 154 141 140 155 163 160 175 196 189 153 156 164 168 169 176 182 176 174 178 176 174 175 176 177 177 179 179 177 177 175 175 174 174 175 174 173 171 170 173 171 168 170 170 176 180 174 172 173 165 159 155 153 151 147 151 152 149 150 149 145 142 140 142 152 150 143 146 146 144 143 139 138 136 133 136 134 128 126 124 125 127 128 117 110 105 80 59 49 50 52 43 43
153 169 164 117 14 83 94 119 144 156 164 175 189 189 163 163 168 170 171 179 186 182 179 181 179 177 178 180 178 178 181 179 177 177 176 175 175 174 173 172 173 172 175 179 176 175 175 174 180 184 183 181 176 171 167 161 160 158 154 155 153 154 156 149 145 142 142 153 155 147 145 149 148 147 145 141 140 138 137 137 135 131 126 134 145 156 162 142 122 111 66 56 52 54 51 41 50
165 190 170 130 119 344 10 73 132 150 170 164 176 195 179 165 164 169 175 182 190 189 184 185 184 181 180 181 181 178 179 178 176 176 176 176 175 175 173 173 175 176 178 179 179 181 180 178 183 187 189 187 179 177 174 167 164 158 153 152 149 154 152 141 143 145 144 159 159 150 153 156 154 152 148 144 141 137 138 140 141 140 142 150 155 165 165 150 124 100 61 55 56 64 56 46 65
175 186 171 149 166 205 3 87 109 151 192 161 179 197 172 155 164 171 179 189 195 193 190 190 187 183 182 182 181 179 179 178 176 176 177 177 176 176 175 176 179 179 180 180 181 184 184 182 187 191 193 192 185 181 176 169 164 158 154 152 145 146 149 148 156 155 146 152 160 158 160 159 157 156 152 145 141 142 144 144 147 152 161 162 159 164 151 135 125 96 67 66 64 69 63 50 61
190 162 172 180 167 176 182 148 142 171 210 177 197 204 155 151 172 177 186 192 195 199 201 199 193 189 187 184 182 180 180 179 178 178 178 177 177 177 178 179 180 182 182 183 184 185 187 189 193 195 196 194 191 184 175 172 169 163 160 158 154 151 157 160 161 158 152 152 158 163 164 161 158 158 157 149 144 151 154 152 159 165 173 170 162 150 125 107 119 105 89 80 68 69 68 56 53
204 156 164 191 171 167 334 160 155 167 213 215 207 211 175 171 181 179 185 191 192 200 211 211 198 193 191 188 186 183 181 180 180 181 180 179 179 179 180 181 181 184 185 186 186 185 188 192 195 197 199 197 195 189 178 176 175 170 165 163 161 158 158 160 154 157 161 154 153 164 169 169 167 163 161 154 150 159 164 164 166 163 173 177 160 146 148 149 131 123 113 82 63 67 70 60 54
191 177 145 150 155 148 172 178 163 179 214 200 201 223 187 175 185 179 172 187 193 193 202 210 200 194 194 191 188 185 184 183 182 183 182 181 180 180 182 183 183 187 188 187 187 187 188 192 195 197 200 199 198 193 184 181 178 175 172 166 166 163 160 158 153 156 163 155 155 170 173 174 175 170 165 163 161 169 175 174 170 165 176 182 172 172 167 129 111 138 130 94 68 74 76 66 62
162 144 129 127 128 133 166 197 197 203 181 173 195 224 188 166 185 179 169 185 195 191 197 203 199 195 196 195 191 186 185 185 185 185 185 184 183 182 184 186 187 188 190 188 188 188 187 192 196 197 199 200 200 196 190 186 183 182 179 173 176 172 164 165 161 157 161 159 162 168 169 175 178 173 175 181 177 178 182 180 176 170 172 182 188 182 155 124 150 180 154 122 102 87 86 72 63
123 78 230 178 146 146 169 201 221 230 76 153 195 222 259 200 168 168 173 185 193 195 199 199 198 198 198 198 193 188 188 187 186 187 188 187 185 185 186 188 189 189 190 189 189 190 189 193 198 197 197 198 198 197 192 190 188 186 184 181 186 180 170 173 166 161 164 163 164 163 162 175 182 178 183 190 187 186 185 180 179 172 171 179 185 177 156 166 187 180 155 139 114 97 97 83 70
59 49 234 199 175 173 183 208 227 236 228 197 192 209 244 197 131 152 174 190 197 197 199 197 197 198 198 199 196 191 191 189 188 189 189 188 187 187 189 189 190 190 190 190 190 189 191 195 198 197 196 195 196 195 193 194 193 191 188 188 193 185 173 172 166 166 169 164 164 166 163 167 179 188 189 191 192 194 190 183 182 175 171 174 169 171 182 188 188 169 157 156 124 110 112 99 87
77 180 186 158 184 185 201 223 230 232 243 231 180 191 230 171 136 159 181 199 207 199 197 196 195 196 197 199 197 193 191 190 190 190 189 189 188 189 189 189 189 189 190 191 190 189 192 195 198 198 195 193 194 193 193 196 195 196 195 194 197 192 183 177 172 173 170 165 163 165 168 162 164 186 195 198 195 192 189 182 180 181 180 184 178 178 185 183 180 173 172 182 190 193 168 118 62
154 167 138 123 139 173 230 234 246 237 233 219 169 186 226 218 156 173 186 204 210 200 194 192 193 196 198 199 197 192 190 189 190 190 190 189 189 190 190 189 189 189 189 189 189 190 192 195 198 198 195 193 193 191 193 196 197 199 201 199 196 193 191 186 181 179 173 166 162 163 173 169 164 174 187 204 200 189 193 177 176 208 210 199 189 177 172 172 171 190 214 211 225 247 232 227 218
180 171 138 134 64 276 230 195 222 239 216 147 157 185 215 233 165 157 175 190 201 199 193 187 189 193 196 199 198 193 190 189 188 190 190 189 191 192 191 191 191 190 190 189 190 191 192 196 200 198 194 191 190 191 192 195 197 199 201 202 199 194 193 191 188 188 181 173 168 172 180 178 175 173 174 185 192 191 202 186 182 207 216 208 199 188 183 184 178 189 226 228 240 251 246 254 247
197 190 162 167 2 255 231 201 215 234 191 125 161 190 210 236 218 150 171 181 192 197 193 187 187 189 191 195 196 192 190 190 189 191 192 191 193 194 195 195 193 192 193 192 192 193 193 197 202 200 196 191 190 192 193 195 198 201 200 201 201 199 196 194 194 194 191 186 180 181 182 181 176 164 160 167 177 193 204 210 210 213 224 220 210 203 199 196 189 195 215 217 249 257 241 243 247
201 195 175 175 183 224 232 221 222 232 197 148 148 185 218 219 186 159 172 183 193 199 194 187 185 186 188 191 193 192 191 191 191 192 194 193 194 196 198 198 196 197 198 198 197 196 196 200 202 203 201 198 196 195 196 197 200 202 202 201 201 202 200 197 197 197 199 197 190 186 185 188 185 174 172 173 174 185 195 217 238 236 240 236 224 219 211 206 203 204 209 199 225 252 239 236 246
206 203 188 184 179 204 231 230 224 229 210 172 155 187 228 184 143 135 152 174 190 199 191 179 181 184 186 188 192 194 193 191 191 192 194 195 196 198 199 199 200 201 202 202 201 200 203 205 204 204 205 204 203 201 200 200 202 204 204 203 202 203 203 202 200 199 200 199 197 198 194 189 190 194 197 196 189 183 191 217 238 246 247 240 230 228 220 220 217 212 216 208 212 243 239 239 241
204 207 205 202 192 198 228 247 243 245 232 185 177 218 262 122 146 149 156 171 179 190 184 169 174 179 179 183 189 193 193 191 191 192 193 195 197 200 201 201 203 205 206 204 204 209 215 216 211 206 207 208 206 205 205 204 206 207 206 205 204 206 207 205 207 206 202 201 203 206 203 195 195 200 203 207 209 200 205 220 224 240 256 246 233 231 224 230 231 228 238 227 218 247 245 234 238
186 204 215 214 212 218 226 228 233 250 254 207 200 235 218 161 172 166 179 186 170 182 185 171 170 174 174 178 186 190 192 191 191 192 192 193 197 201 202 203 205 207 207 207 213 220 224 223 218 213 212 212 210 209 209 210 212 212 211 209 208 210 211 210 213 216 212 216 216 209 205 204 203 207 208 212 221 221 221 221 205 218 244 246 238 240 233 235 240 240 251 246 235 244 243 234 233
191 198 208 201 225 250 242 229 217 227 240 215 205 232 228 205 189 160 192 191 166 175 181 168 166 175 177 179 185 188 189 191 193 194 193 194 196 201 203 205 208 207 207 215 226 231 230 227 223 220 217 216 215 214 214 215 216 216 216 214 212 212 214 214 217 220 218 221 223 213 207 208 208 211 212 210 217 224 228 231 217 213 229 236 233 239 241 242 244 241 249 257 254 246 241 238 238
228 236 213 197 209 221 216 230 227 219 230 223 209 223 233 231 194 158 185 177 156 165 172 166 166 175 181 179 181 185 186 189 194 195 194 193 195 201 204 206 212 215 213 221 232 234 234 233 229 226 224 222 220 216 216 219 218 218 218 219 218 216 216 216 216 218 217 217 219 216 212 213 212 214 220 219 214 217 227 234 232 222 224 233 229 234 248 251 249 246 251 266 269 262 249 241 244
228 255 225 202 217 224 212 221 232 233 236 228 215 216 222 232 120 139 164 156 151 161 165 169 170 172 178 178 176 177 179 185 192 194 194 194 197 203 206 210 220 227 225 226 233 235 234 235 233 230 228 226 223 217 217 221 219 216 218 220 222 221 220 220 218 218 217 216 219 218 216 218 217 217 226 229 221 218 221 224 226 221 216 225 226 220 233 246 247 244 238 234 251 262 259 249 248
204 225 212 200 217 233 225 222 228 239 241 231 230 227 201 65 43 104 135 138 148 159 162 169 171 170 173 174 174 174 175 180 184 188 191 194 199 201 204 213 222 229 229 229 234 235 232 234 235 232 229 228 225 220 220 223 220 217 219 222 223 224 225 225 224 225 223 220 222 221 219 220 221 220 222 226 223 220 221 220 220 220 216 222 228 221 222 237 247 250 245 237 246 258 255 247 250
194 206 212 206 210 219 222 222 219 227 238 237 247 245 166 67 21 87 119 136 148 157 162 166 169 170 170 171 173 175 178 182 182 182 182 183 190 192 197 212 219 222 228 232 236 236 235 236 237 235 232 229 226 224 223 223 222 221 222 224 225 225 227 225 223 227 227 224 224 224 224 223 224 228 226 223 222 221 224 222 217 223 224 224 232 231 225 231 242 250 252 248 258 267 260 250 255